FW3594 Weather Reports


Display with metric or nautical units.
time (UTC)temp
F
wind
direction
speed
MPH
gust
MPH
rain 1hr
in
rain 24hr
in
rain mn
in
humidity
%
barometer
mb
20220930234122 74 225 0.0 0.0 0.00 0.00 0.00 55 1018.6
20220930233122 75 270 0.0 0.0 0.00 0.00 0.00 54 1018.7
20220930232125 75 203 0.0 0.0 0.00 0.00 0.00 55 1018.8
20220930231143 73 247 0.0 3.0 0.00 0.00 0.00 58 1018.8
20220930230122 73 225 0.0 0.0 0.00 0.00 0.00 56 1018.8
20220930225122 73 23 0.0 3.0 0.00 0.00 0.00 57 1018.9
20220930224122 73 270 0.0 0.0 0.00 0.00 0.00 58 1019.0
20220930223122 72 270 0.0 2.0 0.00 0.00 0.00 59 1019.2
20220930222122 72 270 0.0 0.0 0.00 0.00 0.00 61 1019.2
20220930221122 69 277 1.0 6.0 0.00 0.00 0.00 65 1019.2
20220930220136 69 254 0.0 8.0 0.00 0.00 0.00 64 1019.4
20220930215148 69 267 0.0 8.0 0.00 0.00 0.00 65 1019.6
20220930215143 69 268 1.0 8.0 0.00 0.00 0.00 65 1019.6
20220930214122 69 255 1.0 10.0 0.00 0.00 0.00 66 1019.8
20220930213122 69 264 0.0 9.0 0.00 0.00 0.00 64 1020.0
20220930212143 70 270 0.0 3.0 0.00 0.00 0.00 62 1020.2
20220930211122 71 270 0.0 0.0 0.00 0.00 0.00 62 1020.2
20220930210123 70 248 0.0 0.0 0.00 0.00 0.00 66 1020.5
20220930205123 68 180 0.0 2.0 0.00 0.00 0.00 69 1020.7
20220930204122 68 225 0.0 0.0 0.00 0.00 0.00 70 1020.9
20220930203122 65 225 0.0 2.0 0.00 0.00 0.00 77 1021.1
20220930202123 66 248 0.0 0.0 0.00 0.00 0.00 77 1021.2
20220930201122 65 248 0.0 0.0 0.00 0.00 0.00 78 1021.2
20220930200122 64 225 0.0 2.0 0.00 0.00 0.00 80 1021.4
20220930195143 64 248 0.0 0.0 0.00 0.00 0.00 79 1021.5
20220930194122 65 225 0.0 0.0 0.00 0.00 0.00 78 1021.6
20220930193122 64 270 0.0 0.0 0.00 0.00 0.00 79 1021.8
20220930192122 64 202 0.0 2.0 0.00 0.00 0.00 79 1021.9
20220930191143 65 270 0.0 0.0 0.00 0.00 0.00 78 1021.9
20220930190122 65 202 0.0 2.0 0.00 0.00 0.00 78 1021.9
20220930185123 64 225 0.0 0.0 0.00 0.00 0.00 81 1021.9
20220930184143 64 225 0.0 0.0 0.00 0.00 0.00 80 1022.1
20220930183143 62 203 0.0 0.0 0.00 0.00 0.00 85 1022.2
20220930182123 62 225 0.0 0.0 0.00 0.00 0.00 83 1022.2
20220930181121 64 270 0.0 0.0 0.00 0.00 0.00 80 1022.2
20220930180122 62 225 0.0 0.0 0.00 0.00 0.00 84 1022.4
20220930175121 60 225 0.0 0.0 0.00 0.00 0.00 89 1022.5
20220930173121 57 225 0.0 0.0 0.00 0.00 0.00 94 1022.7
20220930172122 56 180 0.0 0.0 0.00 0.00 0.00 94 1022.8
20220930171121 55 225 0.0 0.0 0.00 0.00 0.00 95 1022.8
20220930170122 55 180 0.0 0.0 0.00 0.00 0.00 96 1022.8
20220930165203 55 203 0.0 0.0 0.00 0.00 0.00 96 1022.8
20220930164122 54 180 0.0 0.0 0.00 0.00 0.00 96 1022.8
20220930163143 53 158 0.0 0.0 0.00 0.00 0.00 96 1022.8
20220930162143 53 158 0.0 0.0 0.00 0.00 0.00 97 1022.9
20220930161143 53 180 0.0 0.0 0.00 0.00 0.00 97 1022.9
20220930160204 52 180 0.0 0.0 0.00 0.00 0.00 97 1022.9
20220930155122 51 158 0.0 0.0 0.00 0.00 0.00 97 1022.9
20220930154122 50 158 0.0 0.0 0.00 0.00 0.00 97 1022.8
20220930153122 50 158 0.0 0.0 0.00 0.00 0.00 97 1022.8
20220930152122 50 158 0.0 0.0 0.00 0.00 0.00 97 1022.8
20220930151121 50 158 0.0 0.0 0.00 0.00 0.00 97 1022.8
20220930150122 50 158 0.0 0.0 0.00 0.00 0.00 97 1022.8
20220930145122 50 158 0.0 0.0 0.00 0.00 0.00 97 1022.6
20220930144122 50 158 0.0 0.0 0.00 0.00 0.00 97 1022.6
20220930143122 50 158 0.0 0.0 0.00 0.00 0.00 97 1022.7
20220930142204 50 158 0.0 0.0 0.00 0.00 0.00 97 1022.8
20220930141122 50 158 0.0 0.0 0.00 0.00 0.00 97 1022.8
20220930140122 50 180 0.0 0.0 0.00 0.00 0.00 97 1022.7
20220930135143 50 158 0.0 0.0 0.00 0.00 0.00 97 1022.6
20220930134122 50 113 0.0 0.0 0.00 0.00 0.00 97 1022.7
20220930133122 50 158 0.0 0.0 0.00 0.00 0.00 97 1022.7
20220930132122 50 113 0.0 0.0 0.00 0.00 0.00 97 1022.6
20220930131122 49 90 0.0 0.0 0.00 0.00 0.00 97 1022.6
20220930130122 49 135 0.0 0.0 0.00 0.00 0.00 97 1022.8
20220930125122 49 90 0.0 0.0 0.00 0.00 0.00 97 1022.7
20220930124122 49 113 0.0 0.0 0.00 0.00 0.00 97 1022.7
20220930123204 48 113 0.0 0.0 0.00 0.00 0.00 97 1022.7
20220930122204 48 45 0.0 0.0 0.00 0.00 0.00 97 1022.7
20220930121122 48 90 0.0 0.0 0.00 0.00 0.00 97 1022.7
20220930120122 48 68 0.0 0.0 0.00 0.00 0.00 97 1022.7
20220930115122 48 90 0.0 0.0 0.00 0.00 0.00 97 1022.7
20220930114122 48 68 0.0 0.0 0.00 0.00 0.00 97 1022.8
20220930113122 48 68 0.0 0.0 0.00 0.00 0.00 97 1022.7
20220930112122 48 90 0.0 0.0 0.00 0.00 0.00 97 1022.7
20220930111122 48 68 0.0 0.0 0.00 0.00 0.00 97 1022.7
20220930110122 48 90 0.0 0.0 0.00 0.00 0.00 97 1022.7
20220930105122 49 158 0.0 0.0 0.00 0.00 0.00 97 1022.7
20220930104143 49 158 0.0 0.0 0.00 0.00 0.00 97 1022.5
20220930103143 49 90 0.0 0.0 0.00 0.00 0.00 97 1022.5
20220930102122 49 135 0.0 0.0 0.00 0.00 0.00 97 1022.5
20220930101122 49 113 0.0 0.0 0.00 0.00 0.00 97 1022.5
20220930100204 49 90 0.0 0.0 0.00 0.00 0.00 97 1022.4
20220930095122 49 90 0.0 0.0 0.00 0.00 0.00 97 1022.4
20220930094143 50 90 0.0 0.0 0.00 0.00 0.00 97 1022.4
20220930093143 50 68 0.0 0.0 0.00 0.00 0.00 97 1022.4
20220930092122 50 90 0.0 0.0 0.00 0.00 0.00 97 1022.2
20220930091143 50 45 0.0 0.0 0.00 0.00 0.00 97 1022.2
20220930090143 50 68 0.0 0.0 0.00 0.00 0.00 97 1022.2
20220930085121 50 45 0.0 0.0 0.00 0.00 0.00 97 1022.2
20220930084204 50 45 0.0 0.0 0.00 0.00 0.00 97 1022.2
20220930083121 50 68 0.0 0.0 0.00 0.00 0.00 97 1022.2
20220930082122 51 45 0.0 0.0 0.00 0.00 0.00 97 1022.2
20220930081122 51 68 0.0 0.0 0.00 0.00 0.00 97 1022.2
20220930080122 51 45 0.0 0.0 0.00 0.00 0.00 97 1022.1
20220930075144 51 113 0.0 0.0 0.00 0.00 0.00 97 1022.2
20220930074142 51 135 0.0 0.0 0.00 0.00 0.00 97 1022.2
20220930073121 51 270 0.0 0.0 0.00 0.00 0.00 97 1022.1
20220930072122 52 248 0.0 0.0 0.00 0.00 0.00 97 1022.1
20220930071121 52 203 0.0 0.0 0.00 0.00 0.00 97 1022.1
20220930070122 52 135 0.0 0.0 0.00 0.00 0.00 97 1022.0
20220930065122 52 293 0.0 0.0 0.00 0.00 0.00 97 1022.0
20220930064122 52 293 0.0 0.0 0.00 0.00 0.00 97 1022.0
20220930063122 52 293 0.0 0.0 0.00 0.00 0.00 97 1021.9
20220930062142 52 293 0.0 0.0 0.00 0.00 0.00 97 1021.9
20220930061144 52 270 0.0 0.0 0.00 0.00 0.00 97 1021.9
20220930060122 52 270 0.0 0.0 0.00 0.00 0.00 97 1021.9
20220930055122 52 293 0.0 0.0 0.00 0.00 0.00 97 1021.8
20220930054124 52 293 0.0 0.0 0.00 0.00 0.00 97 1021.8
20220930053122 53 203 0.0 0.0 0.00 0.00 0.00 97 1021.7
20220930052122 53 45 0.0 0.0 0.00 0.00 0.00 97 1021.6
20220930051123 53 293 0.0 0.0 0.00 0.00 0.00 96 1021.6
20220930050143 53 270 0.0 0.0 0.00 0.00 0.00 96 1021.6
20220930045122 53 270 0.0 0.0 0.00 0.00 0.00 96 1021.5
20220930044124 54 293 0.0 0.0 0.00 0.00 0.00 96 1021.6
20220930043122 54 270 0.0 0.0 0.00 0.00 0.00 96 1021.4
20220930042122 54 113 0.0 0.0 0.00 0.00 0.00 95 1021.2
20220930041144 54 90 0.0 0.0 0.00 0.00 0.00 95 1021.2
20220930040122 55 68 0.0 0.0 0.00 0.00 0.00 95 1021.2
20220930035122 55 68 0.0 0.0 0.00 0.00 0.00 95 1021.2
20220930034206 55 45 0.0 0.0 0.00 0.00 0.00 94 1021.1
20220930033122 56 113 0.0 0.0 0.00 0.00 0.00 94 1021.1
20220930032122 56 45 0.0 0.0 0.00 0.00 0.00 94 1020.9
20220930031123 56 45 0.0 0.0 0.00 0.00 0.00 93 1020.9
20220930030122 56 45 0.0 0.0 0.00 0.00 0.00 93 1020.8
20220930025122 56 45 0.0 0.0 0.00 0.00 0.00 92 1020.9
20220930024124 57 45 0.0 0.0 0.00 0.00 0.00 92 1021.0
20220930023122 57 270 0.0 0.0 0.00 0.00 0.00 91 1020.9
20220930022122 58 90 0.0 0.0 0.00 0.00 0.00 89 1020.9
20220930021144 60 113 0.0 0.0 0.00 0.00 0.00 85 1020.9
20220930020143 62 135 0.0 0.0 0.00 0.00 0.00 80 1020.9
20220930015122 63 113 0.0 0.0 0.00 0.00 0.00 79 1021.0
20220930014124 65 203 0.0 0.0 0.00 0.00 0.00 75 1020.9
20220930013122 66 225 0.0 0.0 0.00 0.00 0.00 74 1020.8
20220930012122 66 203 0.0 0.0 0.00 0.00 0.00 74 1020.9
20220930011206 65 225 0.0 0.0 0.00 0.00 0.00 77 1020.9
20220930010143 64 158 0.0 0.0 0.00 0.00 0.00 79 1020.7
20220930005122 65 225 0.0 0.0 0.00 0.00 0.00 77 1020.6
20220930004123 66 180 0.0 0.0 0.00 0.00 0.00 76 1020.7
20220930003204 65 225 0.0 0.0 0.00 0.00 0.00 76 1020.6
20220930002204 66 203 0.0 0.0 0.00 0.01 0.00 74 1020.5
20220930001123 66 225 0.0 0.0 0.00 0.01 0.00 75 1020.5
20220930000121 67 225 0.0 0.0 0.00 0.01 0.00 77 1020.6
20220929235142 68 158 0.0 0.0 0.00 0.01 0.00 71 1020.4